CAPE
0 0 0 0 0 0 0 0 0 0 0 0 0 0 0 0 0 0 0 0 0 0
0 0 0 0 0 0 0 0 0 0 0 0 0 0 0 0 0 0 0 0 0 0
0 0 0 0 0 0 0 0 0 0 0 0 0 0 0 0 0 0 0 0 0 0
0 0 0 0 0 0 0 0 0 0 0 0 0 0 0 0 0 0 0 0 0 0
0 0 0 0 0 0 0 0 0 0 0 0 0 0 0 0 0 0 0 0 0 0
0 0 0 0 0 0 0 0 0 0 0 0 0 0 0 0 0 0 0 0 0 0
0 0 0 0 0 0 0 0 0 0 0 0 0 0 0 0 0 0 0 0 0 0
0 0 0 0 0 0 0 0 0 0 0 0 0 0 0 0 0 0 0 0 0 0
0 0 0 0 0 0 0 0 0 0 0 0 0 0 0 0 0 0 0 0 0 0
0 0 0 0 0 0 0 0 0 0 0 0 0 0 0 0 0 0 0 0 0 0
0 0 0 0 0 0 0 0 0 0 0 0 0 0 0 0 0 0 0 0 0 0
0 0 0 0 0 0 0 0 0 0 0 0 0 0 0 0 0 0 0 0 0 0
0 0 0 0 0 0 0 0 0 0 0 0 0 0 0 0 0 0 0 0 0 0
0 0 0 0 0 0 0 0 0 0 0 0 0 0 0 0 0 0 0 0 0 0
CIN
-0 -0 -0 -0 -0 -0 -0 -0 -0 -0 -0 -0 -0 -0 -0 -0 -0 -0 -0 -0 -0 -0
-0 -0 -0 -0 -0 -0 -0 -0 -0 -0 -0 -0 -0 -0 -0 -0 -0 -0 -0 -0 -0 -0
-0 -0 -0 -0 -0 -0 -0 -0 -0 -0 -0 -0 -0 -0 -0 -0 -0 -0 -0 -0 -0 -0
-0 -0 -0 -0 -0 -0 -0 -0 -0 -0 -0 -0 -0 -0 -0 -0 -0 -0 -0 -0 -0 -0
-0 -0 -0 -0 -0 -0 -0 -0 -0 -0 -0 -0 -0 -0 -0 -0 -0 -0 -0 -0 -0 -0
-0 -0 -0 -0 -0 -0 -0 -0 -0 -0 -0 -0 -0 -0 -0 -0 -0 -0 -0 -0 -0 -0
-0 -0 -0 -0 -0 -0 -0 -0 -0 -0 -0 -0 -0 -0 -0 -0 -0 -0 -0 -0 -0 -0
-0 -0 -0 -0 -0 -0 -0 -0 -0 -0 -0 -0 -0 -0 -0 -0 -0 -0 -0 -0 -0 -0
-0 -0 -0 -0 -0 -0 -0 -0 -0 -0 -0 -0 -0 -0 -0 -0 -0 -0 -0 -0 -0 -0
-0 -0 -0 -0 -0 -0 -0 -0 -0 -0 -0 -0 -0 -0 -0 -0 -0 -0 -0 -0 -0 -0
-0 -0 -0 -0 -0 -0 -0 -0 -0 -0 -0 -0 -0 -0 -0 -0 -0 -0 -0 -0 -0 -0
-0 -0 -0 -0 -0 -0 -0 -0 -0 -0 -0 -0 -0 -0 -0 -0 -0 -0 -0 -0 -0 -0
-0 -0 -0 -0 -0 -0 -0 -0 -0 -0 -0 -0 -0 -0 -0 -0 -0 -0 -0 -0 -0 -0
-0 -0 -0 -0 -0 -0 -0 -0 -0 -0 -0 -0 -0 -0 -0 -0 -0 -0 -0 -0 -0 -0
Wind_Speed
2 1 2 2 3 3 2 3 2 2 2 3 4 4 3 2 3 3 3 5 4 3
1 1 3 4 3 2 3 3 3 2 3 4 4 4 3 3 4 3 3 4 4 3
3 3 3 3 3 3 3 2 4 3 3 4 4 3 3 3 4 3 3 3 4 3
4 4 3 3 3 3 3 3 3 4 4 4 4 4 3 4 5 4 5 4 5 6
4 4 3 3 3 3 3 3 4 4 4 4 4 4 3 4 4 4 5 5 4 6
5 4 4 4 4 4 4 4 5 4 4 4 4 4 4 4 4 4 5 5 5 6
6 5 5 5 4 4 4 4 4 4 4 4 4 4 4 4 3 4 5 5 6 6
6 5 5 5 5 4 4 4 5 5 5 5 4 3 2 2 3 5 6 6 6 6
6 6 6 6 5 4 4 4 4 4 5 5 4 7 7 5 4 4 5 6 6 6
6 6 6 6 5 5 5 4 6 6 5 6 6 9 10 9 4 5 5 6 6 6
6 7 6 6 6 5 4 6 5 6 6 6 6 11 10 9 6 5 6 6 7 7
7 7 6 7 7 6 5 5 6 6 6 6 8 12 12 9 5 6 7 6 6 6
7 7 7 7 7 5 5 6 5 7 7 9 8 12 13 10 4 5 5 6 7 13
5 6 6 5 4 5 5 5 6 6 7 7 8 10 16 15 6 6 6 6 6 5
Wind_Direction
292 308 315 289 295 297 284 285 294 250 265 295 293 291 290 290 271 269 277 280 281 283
298 293 275 296 289 281 287 299 345 298 289 282 281 277 273 260 271 285 279 266 266 264
255 259 280 300 294 303 308 324 317 297 278 273 269 268 261 261 264 268 274 256 267 273
270 270 279 291 299 313 320 319 307 282 268 261 269 272 258 254 258 257 271 276 269 273
248 255 266 292 296 313 316 313 304 303 286 280 279 276 264 268 276 264 269 268 268 269
251 243 243 258 277 296 305 308 315 320 317 313 303 299 290 275 279 278 273 272 270 270
238 239 241 255 265 270 275 283 288 286 288 291 291 289 283 288 299 305 295 291 277 267
237 244 246 257 260 267 279 285 294 297 305 301 294 281 267 265 283 291 293 288 281 269
230 231 234 239 242 252 272 285 279 285 278 283 273 285 281 250 252 271 275 282 284 280
223 233 232 235 238 242 251 240 253 257 262 269 266 269 276 267 235 255 257 267 276 283
220 231 231 231 235 244 243 245 247 253 252 253 262 258 264 269 241 244 255 252 259 260
212 224 225 229 235 238 234 246 241 238 256 248 268 265 264 262 249 248 258 248 254 253
211 217 222 223 236 238 229 246 249 257 241 248 259 275 275 269 233 254 259 261 253 262
221 224 230 238 231 246 257 265 270 272 274 257 245 263 269 268 237 231 242 238 256 245